Regional Weather Roundup
Issued by NWS

Home | Current Version | Previous Version | Text Only | Print | Product List | Glossary On
Versions: 1 2 3 4 5 6 7 8 9 10 11 12 13 14 15 16 17 18 19 20 21 22 23 24 25 26 27 28 29 30 31 32 33 34 35 36 37 38 39 40 41 42 43 44 45 46 47 48 49 50
000
ASUS44 KMEG 250610
RWRTN
TENNESSEE HOURLY STATE WEATHER ROUNDUP
NATIONAL WEATHER SERVICE MEMPHIS TN
100 AM CDT MON JUL 25 2016

TNZ002-004-019-021-049-052-054-088>092-250700-
WEST TENNESSEE

CITY           SKY/WX    TMP DP  RH WIND       PRES   REMARKS
MEMPHIS INTL   PTCLDY    81  75  82 S5        29.96F
NWS MEMPHIS      N/A     80 N/A N/A MISG        N/A
JACKSON        CLEAR     77  76  96 S5        29.97S
DYERSBURG      CLEAR     79  75  89 MISG      29.97R
UNION CITY     CLEAR     79  79 100 CALM      29.97R
PARIS          CLEAR     75  72  88 CALM      29.99R
LEXINGTON      CLEAR     73  73 100 SE3       29.97S
$$

TNZ008-025-027-028-033-062-065-066-250700-
NORTH MIDDLE TENNESSEE

CITY           SKY/WX    TMP DP  RH WIND       PRES   REMARKS
NASHVILLE      MOCLDY    79  73  82 S3        29.99R
CLARKSVILLE    CLEAR     81  74  79 CALM      29.98R
SMYRNA         CLEAR     78  74  87 S3        30.00S
COOKEVILLE     CLEAR     75  75 100 CALM      30.02S
CROSSVILLE     CLEAR     71  71 100 CALM      30.09S
$$

TNZ061-075-076-078-094-096-097-250700-
SOUTH MIDDLE TENNESSEE

CITY           SKY/WX    TMP DP  RH WIND       PRES   REMARKS
FAYETTEVILLE   CLEAR     77  73  88 S3        30.02F
TULLAHOMA      CLEAR     73  72  94 S3        30.04F
WINCHESTER     CLEAR     73  72  94 CALM      30.03F
MCMINNVILLE    CLEAR     75  75 100 CALM      30.03S
COLUMBIA       CLEAR    N/A N/A N/A CALM      29.99S
SHELBYVILLE    CLEAR     75  75 100 SE5       30.01F
$$

TNZ017-018-042-046-047-250700-
NORTHEAST TENNESSEE

CITY           SKY/WX    TMP DP  RH WIND       PRES   REMARKS
TRI CITIES     CLEAR     74  69  85 CALM      30.06F
ELIZABETHTON   PTCLDY    73  70  88 CALM      30.07F
$$

TNZ012-013-036-069-073-074-250700-
CENTRAL EAST TENNESSEE

CITY           SKY/WX    TMP DP  RH WIND       PRES   REMARKS
KNOXVILLE      CLEAR     80  73  79 SE5       30.01F
OAK RIDGE      CLEAR     79  72  79 CALM      30.04S
GATLINBURG     CLEAR     73  70  88 E3        30.03F
MORRISTOWN     PTCLDY    79  72  78 S3        30.04F
$$

TNZ083-085-099-250700-
SOUTHEAST TENNESSEE

CITY           SKY/WX    TMP DP  RH WIND       PRES   REMARKS
CHATTANOOGA    CLEAR     77  73  87 CALM      30.02F
$$

SKY/WX REPORTED AS FAIR MEANS FEW OR NO CLOUDS BELOW
12 THOUSAND FEET.





USA.gov is the U.S. government's official web portal to all federal, state and local government web resources and services.